• în Republica Moldova
  • Lista ţărilor
  • Pe 7 zile
  • Temperatura apei
  • Hartă satelitară
  • Meteo pe hartă
  • Widget-uri
  • user-avatar
    Intrare

    Meteo pe oră la Baku

    Astăzi, 21 Noiembrie, Marţi

    Timp Temperatura Precipitaţii Vânt Presiune Umiditate
    00:00 +17°C° 0 mm 6 m/s 757 mmHg 42%
    01:00 +17°C° 0 mm 6 m/s 757 mmHg 42%
    02:00 +17°C° 0 mm 6 m/s 756 mmHg 43%
    03:00 +16°C° 0 mm 6 m/s 756 mmHg 45%
    04:00 +16°C° 0 mm 6 m/s 756 mmHg 45%
    05:00 +16°C° 0 mm 6 m/s 756 mmHg 44%
    06:00 +16°C° 0 mm 6 m/s 756 mmHg 44%
    07:00 +17°C° 0 mm 6 m/s 755 mmHg 42%
    08:00 +17°C° 0 mm 6 m/s 755 mmHg 41%
    09:00 +18°C° 0 mm 7 m/s 755 mmHg 39%
    10:00 +20°C° 0 mm 7 m/s 754 mmHg 38%
    11:00 +21°C° 0 mm 7 m/s 754 mmHg 36%
    12:00 +21°C° 0 mm 7 m/s 753 mmHg 35%
    13:00 +21°C° 0 mm 7 m/s 753 mmHg 35%
    14:00 +21°C° 0 mm 7 m/s 753 mmHg 35%
    15:00 +21°C° 0 mm 7 m/s 752 mmHg 35%
    16:00 +21°C° 0 mm 7 m/s 752 mmHg 37%
    17:00 +20°C° 0 mm 8 m/s 752 mmHg 38%
    18:00 +18°C° 0 mm 8 m/s 752 mmHg 40%
    19:00 +18°C° 0 mm 7 m/s 751 mmHg 40%
    20:00 +18°C° 0 mm 7 m/s 751 mmHg 41%
    21:00 +18°C° 0 mm 7 m/s 751 mmHg 41%
    22:00 +17°C° 0 mm 7 m/s 750 mmHg 41%
    23:00 +17°C° 0 mm 7 m/s 750 mmHg 40%

    Mâine, 22 Noiembrie, Miercuri

    Timp Temperatura Precipitaţii Vânt Presiune Umiditate
    00:00 +17°C° 0 mm 6 m/s 750 mmHg 40%
    01:00 +17°C° 0 mm 7 m/s 749 mmHg 40%
    02:00 +17°C° 0 mm 7 m/s 749 mmHg 39%
    03:00 +17°C° 0 mm 7 m/s 749 mmHg 39%
    04:00 +17°C° 0 mm 7 m/s 749 mmHg 39%
    05:00 +16°C° 0 mm 7 m/s 749 mmHg 38%
    06:00 +16°C° 0 mm 8 m/s 750 mmHg 38%
    07:00 +16°C° 0 mm 10 m/s 751 mmHg 48%
    08:00 +14°C° 0 mm 12 m/s 752 mmHg 59%
    09:00 +14°C° 0 mm 14 m/s 753 mmHg 69%
    10:00 +13°C° 0 mm 15 m/s 753 mmHg 66%
    11:00 +13°C° 0 mm 15 m/s 754 mmHg 62%
    12:00 +13°C° 0 mm 15 m/s 754 mmHg 59%
    13:00 +13°C° 0 mm 15 m/s 755 mmHg 59%
    14:00 +11°C° 0 mm 15 m/s 755 mmHg 58%
    15:00 +11°C° 0 mm 15 m/s 756 mmHg 58%
    16:00 +10°C° 0,1 mm 15 m/s 757 mmHg 60%
    17:00 +9°C° 0,1 mm 15 m/s 757 mmHg 62%
    18:00 +9°C° 0,1 mm 14 m/s 758 mmHg 64%
    19:00 +9°C° 0,2 mm 14 m/s 758 mmHg 65%
    20:00 +8°C° 0,2 mm 13 m/s 759 mmHg 67%
    21:00 +8°C° 0,2 mm 13 m/s 759 mmHg 68%
    22:00 +8°C° 0,1 mm 13 m/s 759 mmHg 69%
    23:00 +8°C° 0,1 mm 12 m/s 759 mmHg 69%

    Poimâine, 23 Noiembrie, Joi

    Timp Temperatura Precipitaţii Vânt Presiune Umiditate
    00:00 +7°C° 0,1 mm 12 m/s 759 mmHg 69%
    01:00 +7°C° 0,1 mm 12 m/s 760 mmHg 70%
    02:00 +7°C° 0,1 mm 11 m/s 760 mmHg 72%
    03:00 +7°C° 0,1 mm 11 m/s 760 mmHg 73%
    04:00 +6°C° 0,1 mm 11 m/s 760 mmHg 73%
    05:00 +6°C° 0,1 mm 10 m/s 760 mmHg 74%
    06:00 +6°C° 0,1 mm 10 m/s 760 mmHg 74%
    07:00 +6°C° 0,1 mm 9 m/s 760 mmHg 74%
    08:00 +6°C° 0,1 mm 8 m/s 761 mmHg 74%
    09:00 +6°C° 0,1 mm 8 m/s 761 mmHg 74%
    10:00 +6°C° 0,2 mm 7 m/s 761 mmHg 75%
    11:00 +7°C° 0,2 mm 6 m/s 761 mmHg 75%
    12:00 +7°C° 0,2 mm 6 m/s 761 mmHg 75%
    13:00 +7°C° 0,2 mm 5 m/s 761 mmHg 74%
    14:00 +7°C° 0,2 mm 4 m/s 761 mmHg 73%
    15:00 +8°C° 0,2 mm 3 m/s 761 mmHg 72%
    16:00 +8°C° 0 mm 2 m/s 761 mmHg 73%
    17:00 +8°C° 0 mm 2 m/s 761 mmHg 73%
    18:00 +9°C° 0 mm 1 m/s 762 mmHg 74%
    19:00 +8°C° 0 mm 2 m/s 762 mmHg 72%
    20:00 +8°C° 0 mm 2 m/s 762 mmHg 70%
    21:00 +8°C° 0 mm 2 m/s 762 mmHg 68%
    22:00 +8°C° 0 mm 3 m/s 762 mmHg 65%
    23:00 +8°C° 0 mm 3 m/s 763 mmHg 62%

    24 Noiembrie, Vineri

    Timp Temperatura Precipitaţii Vânt Presiune Umiditate
    00:00 +7°C° 0 mm 4 m/s 763 mmHg 59%
    01:00 +7°C° 0 mm 4 m/s 763 mmHg 63%
    02:00 +7°C° 0 mm 4 m/s 763 mmHg 67%
    03:00 +7°C° 0 mm 4 m/s 763 mmHg 71%
    04:00 +7°C° 0 mm 4 m/s 763 mmHg 72%
    05:00 +7°C° 0 mm 4 m/s 764 mmHg 74%
    06:00 +7°C° 0 mm 4 m/s 764 mmHg 75%
    07:00 +7°C° 0,3 mm 4 m/s 764 mmHg 76%
    08:00 +7°C° 0,3 mm 4 m/s 765 mmHg 76%
    09:00 +9°C° 0,3 mm 3 m/s 765 mmHg 77%
    10:00 +9°C° 0,5 mm 3 m/s 765 mmHg 76%
    11:00 +9°C° 0,5 mm 3 m/s 765 mmHg 75%
    12:00 +9°C° 0,5 mm 3 m/s 764 mmHg 74%
    13:00 +8°C° 0,2 mm 4 m/s 764 mmHg 72%
    14:00 +8°C° 0,2 mm 4 m/s 764 mmHg 70%
    15:00 +8°C° 0,2 mm 5 m/s 764 mmHg 68%
    16:00 +8°C° 0,1 mm 5 m/s 765 mmHg 67%
    17:00 +8°C° 0,1 mm 6 m/s 765 mmHg 67%
    18:00 +8°C° 0,1 mm 6 m/s 765 mmHg 66%
    19:00 +7°C° 0,1 mm 6 m/s 766 mmHg 66%
    20:00 +7°C° 0,1 mm 6 m/s 766 mmHg 66%
    21:00 +7°C° 0,1 mm 6 m/s 766 mmHg 66%
    22:00 +7°C° 0,2 mm 6 m/s 766 mmHg 66%
    23:00 +7°C° 0,2 mm 6 m/s 766 mmHg 66%

    25 Noiembrie, Sâmbătă

    Timp Temperatura Precipitaţii Vânt Presiune Umiditate
    00:00 +7°C° 0,2 mm 6 m/s 766 mmHg 65%
    01:00 +7°C° 0,3 mm 6 m/s 766 mmHg 66%
    02:00 +7°C° 0,3 mm 6 m/s 766 mmHg 66%
    03:00 +6°C° 0,3 mm 7 m/s 766 mmHg 67%
    04:00 +6°C° 0,7 mm 7 m/s 767 mmHg 67%
    05:00 +5°C° 0,7 mm 7 m/s 767 mmHg 67%
    06:00 +5°C° 0,7 mm 7 m/s 767 mmHg 66%
    07:00 +6°C° 0,9 mm 7 m/s 768 mmHg 63%
    08:00 +6°C° 0,9 mm 7 m/s 768 mmHg 60%
    09:00 +6°C° 0,9 mm 8 m/s 768 mmHg 56%
    10:00 +6°C° 0,6 mm 8 m/s 769 mmHg 55%
    11:00 +6°C° 0,6 mm 8 m/s 769 mmHg 54%
    12:00 +7°C° 0,6 mm 8 m/s 769 mmHg 53%
    13:00 +6°C° 0,5 mm 9 m/s 769 mmHg 59%
    14:00 +6°C° 0,5 mm 9 m/s 769 mmHg 65%
    15:00 +6°C° 0,5 mm 9 m/s 770 mmHg 71%
    16:00 +6°C° 0,9 mm 10 m/s 770 mmHg 71%
    17:00 +6°C° 0,9 mm 10 m/s 771 mmHg 70%
    18:00 +4°C° 0,9 mm 11 m/s 771 mmHg 70%
    19:00 +5°C° 0,2 mm 10 m/s 771 mmHg 69%
    20:00 +6°C° 0,2 mm 9 m/s 772 mmHg 68%
    21:00 +6°C° 0,2 mm 8 m/s 772 mmHg 68%
    22:00 +6°C° 0,2 mm 7 m/s 772 mmHg 67%
    23:00 +5°C° 0,2 mm 7 m/s 772 mmHg 67%

    26 Noiembrie, Duminică

    Timp Temperatura Precipitaţii Vânt Presiune Umiditate
    00:00 +5°C° 0,2 mm 6 m/s 773 mmHg 67%
    01:00 +6°C° 0 mm 5 m/s 773 mmHg 67%
    02:00 +6°C° 0 mm 4 m/s 773 mmHg 66%
    03:00 +7°C° 0 mm 3 m/s 773 mmHg 66%
    04:00 +7°C° 0 mm 3 m/s 773 mmHg 66%
    05:00 +6°C° 0 mm 2 m/s 773 mmHg 66%
    06:00 +7°C° 0 mm 1 m/s 773 mmHg 66%
    07:00 +8°C° 0 mm 1 m/s 773 mmHg 62%
    08:00 +8°C° 0 mm 1 m/s 773 mmHg 58%
    09:00 +9°C° 0 mm 1 m/s 774 mmHg 53%
    10:00 +9°C° 0 mm 2 m/s 773 mmHg 48%
    11:00 +9°C° 0 mm 2 m/s 773 mmHg 43%
    12:00 +10°C° 0 mm 3 m/s 772 mmHg 38%
    13:00 +10°C° 0 mm 3 m/s 772 mmHg 36%
    14:00 +10°C° 0 mm 3 m/s 772 mmHg 34%
    15:00 +10°C° 0 mm 3 m/s 772 mmHg 33%
    16:00 +10°C° 0 mm 3 m/s 772 mmHg 35%
    17:00 +9°C° 0 mm 3 m/s 772 mmHg 37%
    18:00 +9°C° 0 mm 3 m/s 772 mmHg 39%
    19:00 +8°C° 0 mm 3 m/s 772 mmHg 40%
    20:00 +8°C° 0 mm 3 m/s 772 mmHg 40%
    21:00 +8°C° 0 mm 3 m/s 772 mmHg 40%
    22:00 +8°C° 0 mm 3 m/s 772 mmHg 40%
    23:00 +8°C° 0 mm 2 m/s 772 mmHg 41%
    Arată mai mult